Location: Bothwell
(41.7170°N, 112.2589°W)
Time: 01:29:53
(UTC+00:00)

Tiros 1 - Pass Details

Date: 18 May 2026
Orbit: 618 x 649 km, 48.4° (Epoch: 6 June)

Event Time Altitude Azimuth Distance (km) Brightness Sun altitude
Rises 10:00:53 0° 295° (WNW) 2,907 10.4 -18.9°
Reaches altitude 10° 10:03:18 10° 302° (WNW) 1,995 9.6 -18.6°
Maximum altitude 10:07:42 45° 15° (NNE) 850 8.2 -18.1°
Drops below altitude 10° 10:12:04 10° 89° (E) 1,979 10.2 -17.6°
Sets 10:14:27 0° 96° (E) 2,881 11.0 -17.3°
